CAPE
0 0 0 0 0 0 2 0 0 330 317 606 584 616 394 153 41 329 376 139 141 374 350 325 328 378 384 770 655 469 502 624 719 415 155 350 0 0 0 102 1077 1143 880 788
0 0 0 0 0 0 0 0 62 247 59 596 359 432 1014 785 346 43 156 269 203 67 368 452 390 473 568 691 581 432 584 586 404 246 135 360 67 43 94 1323 1132 807 756 456
0 0 0 0 0 0 0 0 21 138 336 426 128 203 300 675 382 558 287 203 346 217 236 446 513 577 711 763 661 664 734 576 526 604 569 629 600 871 644 291 658 1335 877 914
0 0 0 0 0 0 0 3 73 78 93 93 7 16 396 252 343 400 37 196 209 526 314 432 563 527 691 763 712 893 744 606 567 587 384 590 199 424 455 747 956 727 527 123
0 0 0 0 0 0 0 0 0 136 20 0 185 171 527 254 50 39 117 59 104 523 496 509 687 569 832 817 1011 933 860 560 476 860 663 833 359 751 662 776 727 828 27 0
0 0 0 0 0 0 0 0 2 35 28 0 16 93 64 144 1 89 17 12 170 297 639 648 693 626 679 968 1026 890 1117 944 904 1093 712 748 366 784 953 1051 1084 1189 212 0
0 0 0 0 0 0 0 0 1 65 72 20 14 0 34 97 28 6 0 13 164 311 464 407 696 628 745 807 945 958 1368 1490 1105 1230 1044 785 871 804 690 847 875 1159 1299 1397
0 0 0 0 0 0 0 0 0 4 28 4 3 3 77 43 26 31 0 2 35 315 441 512 623 674 752 1250 1069 1235 1535 1570 1048 911 1350 899 825 950 707 842 898 673 985 876
0 0 0 0 0 0 0 0 0 0 0 42 53 243 71 69 43 261 397 545 606 521 634 843 1008 966 1019 911 1463 1641 1466 1517 1119 1140 1466 1342 1335 1601 1379 786 1217 1422 1293 1977
0 0 0 0 0 0 0 0 0 0 0 30 63 139 115 102 106 185 601 752 741 526 539 912 1244 1063 1122 1011 1613 1801 1780 1572 1396 1349 1431 1609 1465 1353 1286 1406 1556 1543 924 1355
0 0 0 0 0 0 0 0 0 0 0 0 4 149 366 86 64 178 210 723 731 772 733 887 1098 1129 1345 1132 1366 2061 2115 2031 1785 1651 1551 1233 1292 1324 1367 1135 947 1452 1611 1600
0 0 0 0 0 0 0 0 0 0 6 9 0 79 187 0 16 76 69 725 795 797 663 865 1117 1174 1358 1251 1331 1716 1778 2119 1858 1682 1700 1441 1489 1435 1527 1194 933 1039 1509 1543
0 0 0 1 0 24 52 16 4 0 0 38 12 52 38 15 71 158 233 174 735 744 907 1265 1425 1492 1533 1515 1322 1725 1663 1665 1601 1817 1968 1731 2011 1830 1854 1571 1211 912 1039 1366
13 0 0 1 13 3 8 1 1 1 0 14 2 94 63 0 26 113 771 604 986 559 1010 1431 1549 1671 1553 1752 1650 1924 1709 1680 1535 1724 1651 2002 1824 2104 1935 1866 1721 1499 1523 1654
0 0 0 0 4 0 10 2 0 4 0 5 14 0 4 0 22 88 121 171 97 534 201 1767 1913 2128 1962 2586 2216 2385 2094 2138 1717 1656 1733 1714 2144 1973 2093 1962 1953 2300 1765 1800
0 0 0 0 12 16 0 9 0 2 42 6 20 5 0 37 66 4 25 0 31 246 690 1468 2063 2267 2881 2857 3107 2782 2604 2492 2708 2892 1982 1964 2097 2456 2225 2313 2321 2498 2424 2369
23 69 196 73 162 88 0 3 34 115 26 0 0 0 0 8 8 160 201 158 5 90 791 1520 1911 2210 2175 2886 2934 2979 3022 2961 3143 2614 2867 3399 3595 2812 2804 2836 2737 2548 2675 2665
0 0 17 62 93 10 61 23 26 13 41 8 0 3 0 0 22 27 244 266 373 255 161 453 1987 2310 2385 2988 3104 3029 3182 3284 3174 3588 3301 3445 3624 3697 3669 3505 3331 3199 3113 2859
0 0 0 0 2 0 55 44 6 2 46 22 0 668 733 137 44 67 161 206 0 0 5 12 1645 2292 2632 3396 3469 3592 3668 3795 3617 3605 3664 3677 3812 3602 3447 3345 3173 2948 2937 2327
0 0 0 0 0 0 89 100 143 128 5 305 77 4 868 407 144 31 1 10 0 0 29 44 1285 2576 2931 3262 3701 3874 3985 3926 3830 3732 3691 3704 3526 3092 2010 1564 1136 946 721 610
0 100 16 7 26 135 58 269 631 348 468 19 903 675 505 705 663 93 4 134 11 122 42 79 592 3059 3193 3539 3875 3918 3837 3742 3691 3173 2147 1955 1576 1065 719 406 297 280 187 43
19 20 23 132 62 5 173 393 475 92 0 5 0 348 522 459 79 0 0 5 65 0 80 1 163 3855 3810 4006 3936 3891 3486 3029 2364 1805 1320 969 414 339 125 109 0 0 12 0
0 7 0 38 44 103 243 165 183 4 0 9 0 0 96 286 74 0 0 0 0 0 40 6 2136 4088 4093 3857 2999 2124 1547 1395 1364 1114 807 583 226 42 13 1 0 0 0 0
0 0 0 0 186 6 46 300 141 35 2 9 3 0 0 0 79 314 0 0 148 1688 1798 2776 3097 3076 2947 2018 1865 1648 1267 1159 1195 1001 672 383 209 227 103 0 0 0 0 0
0 0 0 0 18 2 202 195 11 0 5 21 15 1 0 0 20 3 1 1092 2265 3046 3087 2669 2379 2324 1892 1547 1389 1422 1341 1174 861 656 595 335 22 0 0 0 0 0 0 0
0 3 0 1 0 1 1 3 289 47 0 0 6 0 0 17 25 51 93 217 2424 2732 2610 2166 1807 1712 1462 1224 1322 1279 1117 838 702 597 410 63 12 74 0 0 0 0 0 0
CIN
0 0 0 0 0 0 -1 0 0 -40 -24 -25 -30 -63 -103 -183 -209 -71 -38 -22 -22 -82 -94 -109 -99 -110 -112 -87 -80 -82 -74 -67 -51 -60 -76 -53 -18 0 0 -108 -58 -67 -62 -87
0 0 0 0 0 0 0 0 -48 -62 -44 -34 -74 -138 -87 -145 -138 -103 -249 -41 -23 -49 -86 -76 -87 -88 -108 -120 -92 -91 -93 -100 -74 -89 -90 -65 -101 -124 -100 -43 -54 -80 -50 -64
0 0 0 0 0 0 0 0 -10 -17 -46 -95 -90 -212 -197 -222 -262 -171 -246 -253 -50 -34 -85 -84 -80 -110 -124 -134 -125 -93 -89 -100 -75 -47 -60 -60 -65 -48 -43 -57 -50 -42 -56 -46
0 0 0 0 0 0 0 -10 -4 -1 -32 -32 -60 -75 -168 -251 -248 -150 -340 -285 -120 -57 -78 -95 -83 -121 -157 -147 -138 -107 -94 -93 -85 -67 -49 -37 -59 -40 -55 -53 -79 -111 -97 -104
0 0 0 0 0 0 0 0 -2 -66 -123 0 -40 -67 -66 -213 -135 -404 -326 -330 -178 -51 -81 -99 -82 -134 -131 -146 -118 -140 -95 -108 -78 -69 -45 -43 -56 -47 -52 -61 -61 -86 -173 0
0 0 0 0 0 0 0 0 -30 -257 -382 0 -150 -70 -108 -206 -208 -429 -359 -216 -259 -108 -79 -91 -81 -122 -138 -129 -116 -154 -108 -109 -92 -54 -52 -42 -31 -42 -37 -51 -51 -75 -92 0
0 0 0 0 0 0 0 0 -16 -44 -156 -297 -186 0 -65 -125 -325 -112 0 -395 -211 -169 -72 -102 -98 -101 -151 -169 -140 -151 -116 -89 -94 -52 -44 -48 -47 -52 -36 -46 -50 -45 -58 -84
0 0 0 0 0 0 0 0 0 -45 -110 -136 -161 -158 -61 -80 -145 -202 -19 -66 -224 -145 -99 -116 -108 -119 -109 -107 -152 -144 -126 -96 -109 -83 -49 -76 -57 -51 -54 -55 -59 -67 -64 -70
0 0 0 0 0 0 0 0 0 0 0 -29 -80 -47 -97 -279 -420 -131 -55 -46 -51 -93 -93 -92 -115 -113 -88 -138 -179 -157 -147 -116 -111 -91 -54 -43 -42 -23 -32 -53 -52 -40 -37 -84
0 0 0 0 0 0 0 0 0 0 0 -22 -79 -154 -246 -138 -179 -102 -48 -57 -104 -69 -91 -79 -98 -98 -95 -122 -142 -150 -143 -135 -108 -71 -47 -35 -42 -46 -52 -52 -42 -35 -56 -57
0 0 0 0 0 0 0 0 0 0 0 0 -11 -52 -142 -233 -153 -117 -168 -53 -62 -63 -84 -75 -91 -108 -122 -125 -152 -137 -131 -109 -94 -74 -61 -71 -65 -68 -61 -71 -71 -56 -39 -42
-22 0 0 0 0 0 0 0 0 -2 -51 -61 0 -37 -139 0 -426 -359 -416 -64 -58 -74 -72 -69 -91 -95 -116 -144 -167 -154 -144 -105 -103 -91 -80 -91 -66 -81 -79 -111 -114 -83 -60 -69
0 0 0 -15 -11 -58 -40 -73 -62 0 0 -98 -99 -73 -396 -381 -444 -391 -391 -333 -110 -80 -108 -109 -79 -102 -113 -149 -167 -161 -163 -149 -127 -99 -90 -93 -64 -81 -88 -108 -115 -129 -101 -81
-77 0 0 -47 -22 -26 -50 -92 -38 -32 0 -126 -66 -105 -269 0 -322 -334 -391 -231 -192 -203 -105 -104 -126 -143 -168 -148 -143 -147 -162 -167 -156 -127 -115 -82 -92 -88 -93 -89 -101 -101 -92 -77
0 0 0 0 -81 0 -125 -101 0 -108 0 -146 -102 0 -170 0 -184 -478 -578 -511 -459 -202 -321 -118 -123 -130 -158 -132 -131 -127 -133 -149 -163 -162 -151 -138 -119 -130 -103 -92 -77 -53 -88 -70
0 0 -2 -2 -96 -75 -30 -105 -3 -119 -174 -299 -133 -155 0 -187 -276 -514 -525 0 -396 -306 -203 -96 -122 -118 -118 -120 -118 -124 -137 -137 -109 -98 -162 -165 -144 -109 -110 -84 -55 -35 -40 -48
-89 -56 -30 -117 -97 -104 0 -24 -132 -123 -206 0 0 0 0 -227 -124 -172 -314 -376 -326 -304 -166 -90 -116 -130 -161 -165 -164 -169 -165 -147 -112 -126 -104 -55 -44 -86 -70 -52 -44 -35 -23 -20
0 0 -113 -106 -86 -117 -142 -75 -41 -53 -212 -244 0 -119 0 0 -162 -328 -446 -584 -587 -641 -664 -403 -126 -134 -175 -178 -185 -195 -170 -146 -134 -95 -87 -54 -37 -30 -28 -22 -15 -9 -10 -16
0 0 0 0 -19 0 -133 -91 -71 -48 -159 -252 0 -171 -109 -200 -247 -399 -611 -688 0 0 -786 -683 -168 -128 -161 -151 -193 -167 -140 -123 -111 -87 -61 -37 -22 -18 -18 -14 -18 -24 -12 -37
0 0 0 0 0 0 -104 -235 -163 -63 -32 -173 -219 -14 -170 -231 -123 -269 -41 -426 0 0 -587 -735 -120 -153 -181 -190 -183 -162 -139 -106 -83 -57 -40 -21 -29 -53 -132 -159 -190 -178 -167 -141
0 -40 -24 -16 -70 -27 -253 -185 -118 -21 -140 -193 -38 -130 -195 -193 -238 -417 -605 -401 -149 -317 -467 -323 -257 -123 -148 -160 -141 -129 -124 -96 -66 -122 -229 -200 -213 -262 -278 -316 -307 -267 -266 -331
-73 -63 -31 -30 -38 -26 -254 -126 -192 -284 -26 -318 0 -65 -125 -201 -493 0 0 -224 -814 0 -609 -247 -450 -125 -143 -139 -95 -89 -118 -180 -253 -280 -325 -353 -447 -439 -487 -418 -13 0 -131 0
-11 -32 0 -60 -84 -138 -179 -205 -211 -137 0 -353 0 0 -190 -238 -307 0 0 0 0 0 -629 -178 -23 -157 -97 -115 -225 -305 -356 -376 -342 -357 -380 -394 -467 -515 -522 -154 0 0 0 0
0 0 0 0 -29 -17 -55 -89 -171 -320 -335 -338 -352 0 0 0 -256 -122 0 0 -337 -93 -71 -75 -168 -156 -183 -334 -348 -355 -362 -358 -309 -328 -371 -395 -409 -349 -350 0 0 0 0 0
0 0 0 0 -35 -20 -37 -47 -89 -19 -77 -179 -241 -116 0 0 -225 -64 -21 -69 -37 -48 -79 -150 -234 -239 -281 -355 -338 -296 -271 -291 -324 -342 -335 -358 -278 0 0 0 0 0 0 0
0 -30 0 -9 0 -12 -25 -39 -38 -53 0 0 -183 0 0 -131 -185 -247 -269 -274 -54 -63 -73 -116 -211 -231 -276 -313 -263 -245 -250 -285 -292 -298 -322 -398 -470 -329 0 0 0 0 0 0
Wind_Speed
9 4 8 15 14 15 5 6 9 4 3 5 3 9 8 4 8 9 8 4 14 18 15 16 15 15 14 10 11 11 11 8 7 4 4 2 3 3 3 3 7 7 6 8
7 10 15 17 17 6 4 9 2 4 9 5 3 3 5 12 2 7 13 11 14 13 17 15 18 16 16 15 13 11 12 11 7 6 4 3 3 3 2 2 4 6 6 3
9 14 14 19 11 9 7 8 5 5 4 1 5 5 4 3 6 13 16 15 14 17 18 14 17 17 17 16 13 11 13 12 8 7 3 2 1 1 0 2 2 3 2 4
10 16 19 7 3 8 9 4 6 7 3 4 6 5 3 9 14 18 15 21 14 20 17 14 15 17 17 15 15 13 14 13 10 8 4 5 5 4 4 3 2 2 3 3
11 10 9 8 10 8 9 6 7 10 10 12 7 2 2 4 6 16 22 17 12 19 21 18 17 20 18 17 15 14 14 13 9 8 7 5 5 4 3 3 4 2 3 4
10 12 5 5 8 8 8 3 6 10 5 3 7 3 5 6 8 8 9 7 11 15 20 19 16 21 17 16 16 15 15 15 9 8 8 7 8 6 1 2 2 4 3 3
12 16 10 6 5 10 4 2 4 4 4 8 5 4 9 3 11 14 14 14 14 10 18 17 17 16 20 19 17 15 15 12 11 10 8 7 6 6 6 4 4 4 3 3
8 9 12 9 9 8 5 6 6 6 6 7 7 7 8 10 10 14 18 18 15 9 14 17 15 16 14 20 19 17 15 12 11 9 8 7 7 4 4 5 3 4 4 5
5 9 9 12 7 8 10 6 9 4 7 4 5 2 9 15 13 13 1 6 12 11 16 16 18 16 13 14 19 18 16 12 12 11 7 7 7 6 5 7 4 4 5 2
7 6 3 7 8 8 10 8 7 5 4 3 2 2 18 8 11 4 7 6 12 10 14 15 16 16 13 13 15 16 16 15 14 11 9 6 6 6 5 4 4 5 5 4
6 4 11 8 5 9 3 5 5 3 5 4 3 6 10 11 8 9 3 8 8 8 15 15 15 15 13 13 13 15 15 14 13 11 10 9 8 7 7 6 6 5 4 4
5 4 4 9 9 3 8 3 3 4 9 3 3 6 5 7 5 8 11 5 9 10 10 13 13 14 13 14 11 14 13 12 12 11 10 10 9 9 7 6 7 6 6 5
4 6 5 10 9 8 3 5 7 5 5 4 3 6 10 12 10 6 8 17 3 10 9 13 10 13 13 13 11 11 12 11 9 8 10 12 9 11 9 10 8 7 7 7
8 6 5 6 5 3 1 7 9 7 4 5 5 9 7 15 13 9 26 18 6 5 4 9 9 11 13 13 13 11 11 11 10 8 9 9 12 9 9 7 8 9 7 7
8 6 7 10 9 7 2 4 7 4 2 3 2 11 14 19 8 16 23 17 18 16 8 9 11 7 10 11 12 11 11 11 12 10 10 11 8 9 7 7 7 7 9 8
3 5 5 8 10 11 8 5 7 7 6 8 6 6 6 9 4 10 12 15 14 8 8 9 11 10 10 13 13 12 12 11 10 9 11 8 8 8 10 8 7 7 7 7
5 4 4 5 7 10 7 8 10 0 2 4 7 6 15 17 8 9 10 6 7 5 11 11 11 12 10 12 12 12 11 8 8 7 7 7 7 8 7 7 7 7 6 5
8 6 2 6 4 9 7 8 8 14 11 9 23 11 12 30 8 7 4 10 7 8 11 19 13 13 12 11 11 8 8 8 7 7 7 6 6 6 5 4 4 4 4 6
9 4 4 4 6 9 8 13 11 11 15 15 17 8 4 7 3 6 7 4 7 7 17 15 14 15 13 13 14 12 9 8 7 6 6 5 6 6 5 6 6 3 1 2
7 9 6 4 8 13 3 18 19 12 3 10 8 2 4 5 4 5 6 9 12 17 24 22 24 15 14 9 13 13 10 9 7 7 7 6 5 5 6 5 6 5 2 1
4 3 2 3 2 4 11 16 11 1 6 24 5 6 3 2 7 6 7 14 17 16 19 13 16 16 14 12 12 11 11 9 8 9 8 7 7 7 7 6 4 5 4 4
3 3 3 4 3 5 14 7 7 5 6 12 22 11 5 4 6 7 4 8 13 18 17 13 17 9 13 15 14 12 9 9 10 10 10 8 8 6 5 7 5 4 5 6
6 2 2 4 2 5 2 5 6 4 1 6 10 22 18 10 6 8 8 7 11 21 21 19 31 12 12 12 15 14 9 11 10 10 9 8 8 6 6 6 4 5 5 3
7 7 3 6 3 3 1 8 1 1 2 8 7 13 19 11 14 14 13 9 11 8 13 10 15 14 12 11 12 14 9 7 9 9 9 7 7 6 5 4 5 5 3 2
4 7 5 5 5 6 8 4 6 4 5 6 9 7 15 14 14 11 10 15 7 6 4 5 9 9 12 12 10 7 7 9 9 8 6 6 6 6 6 5 3 5 2 1
4 3 3 3 5 3 6 9 8 6 7 8 7 9 9 11 11 7 13 15 4 9 8 6 9 12 10 11 8 7 7 8 7 7 7 6 6 5 5 5 4 6 7 1
Wind_Direction
241 213 235 247 246 256 231 293 269 26 359 185 327 38 229 1 317 249 230 211 166 167 183 173 173 160 163 144 151 157 151 159 148 154 152 193 224 244 259 202 172 190 178 162
266 237 240 254 263 271 329 283 183 285 249 170 123 44 163 125 40 315 324 265 190 175 163 172 174 166 165 161 162 158 162 160 166 155 173 175 172 239 255 147 180 210 186 207
223 251 247 246 266 291 261 245 206 215 199 194 265 116 128 138 132 267 291 301 243 181 168 164 170 157 164 161 167 162 161 165 163 172 157 174 96 316 58 175 176 158 174 126
225 251 258 275 275 284 281 332 341 278 55 313 334 284 164 167 195 215 209 243 257 170 171 168 162 166 163 167 170 164 163 166 175 174 180 164 168 184 218 193 155 202 170 174
256 252 240 254 265 269 252 3 354 75 55 16 323 65 246 174 198 209 221 223 220 183 173 174 170 169 170 165 172 168 171 168 181 174 179 183 176 195 220 209 167 177 276 232
278 278 278 254 258 250 256 28 34 56 57 346 217 144 273 181 210 245 249 211 209 195 174 176 174 168 168 167 172 171 171 176 176 177 186 181 185 197 212 228 169 152 211 258
267 260 256 249 277 295 215 250 10 23 329 215 128 330 218 184 232 220 229 226 228 203 171 167 157 152 169 172 175 173 172 177 183 172 172 189 192 200 207 219 179 178 207 234
263 294 221 213 191 222 242 188 162 200 228 254 132 213 255 221 242 218 232 232 207 199 168 168 161 156 157 158 173 172 173 174 179 181 173 180 195 197 205 214 204 205 192 238
257 291 334 173 186 178 269 296 236 216 261 121 179 65 320 95 115 257 219 103 141 139 155 154 146 152 153 147 166 167 172 175 176 180 173 183 187 190 197 218 219 226 213 188
256 306 267 214 167 216 184 235 1 339 314 328 257 165 202 196 206 347 118 102 121 142 145 144 146 158 160 155 148 162 166 171 178 177 183 180 181 196 212 224 256 231 242 154
227 179 290 351 174 204 274 266 271 189 174 208 225 246 189 189 223 144 292 147 140 135 137 149 154 159 155 151 143 160 166 169 176 180 179 182 191 195 206 212 221 252 221 181
342 186 232 255 280 256 204 234 296 59 310 300 234 267 153 112 14 29 327 166 148 136 144 153 153 156 154 159 156 160 164 165 177 183 181 189 195 195 199 208 213 219 242 227
323 340 353 329 334 20 346 28 22 349 25 21 333 276 90 123 137 284 15 306 116 155 140 142 140 149 156 159 160 159 167 171 174 167 170 190 190 194 199 203 208 209 215 225
93 264 222 223 259 236 341 10 11 67 42 331 336 8 325 190 189 161 96 281 48 314 173 146 158 158 153 161 167 168 170 170 174 174 182 179 194 195 201 196 199 211 208 210
153 221 280 294 316 326 88 338 341 316 79 255 6 340 317 290 249 141 154 171 168 235 297 149 162 162 158 154 169 170 173 169 180 181 181 195 190 195 191 199 209 206 214 216
286 267 282 290 291 287 283 240 257 281 17 356 316 295 332 343 138 140 173 182 178 197 227 176 164 167 159 166 169 174 176 180 176 176 192 187 189 185 197 195 202 213 215 206
295 346 356 285 329 328 312 211 230 114 140 100 306 206 331 304 305 254 117 104 29 360 309 167 175 179 176 174 172 174 172 165 173 182 179 179 177 188 189 191 201 217 220 216
283 302 306 263 312 292 267 273 234 216 160 175 257 260 209 253 228 50 53 137 82 356 345 318 176 183 183 172 172 159 157 167 171 170 175 173 169 162 163 171 200 226 222 225
248 257 252 244 253 267 273 273 274 280 219 214 222 187 314 185 113 28 22 91 96 17 315 309 244 185 179 174 169 161 156 153 151 161 158 158 161 157 180 205 216 230 68 307
249 241 209 240 236 262 334 339 335 327 315 197 216 229 88 330 184 217 201 150 111 111 269 287 231 178 172 170 158 152 147 137 139 148 164 163 144 135 91 68 69 64 42 322
324 323 196 264 252 330 335 355 317 298 307 319 303 94 37 312 228 205 221 153 150 200 201 251 284 168 163 146 143 134 133 140 151 129 111 107 103 100 98 84 64 55 53 27
6 330 341 331 268 268 7 14 50 256 292 340 339 346 6 192 209 256 255 124 81 32 346 38 300 142 135 133 134 135 127 133 124 117 116 110 97 93 81 82 60 40 24 24
21 75 178 103 232 214 218 166 148 193 110 318 311 339 328 17 266 249 239 220 140 162 213 197 196 122 127 121 129 123 130 121 123 119 116 109 106 105 115 118 110 79 53 30
344 28 358 16 199 7 195 82 39 29 332 298 312 326 326 349 338 310 238 227 248 214 176 157 123 119 103 109 112 120 132 134 116 118 122 125 128 135 144 114 112 109 95 55
309 340 306 285 32 9 83 150 184 194 188 231 279 287 307 330 318 322 344 237 122 96 115 119 109 102 106 109 102 114 127 119 124 124 129 135 138 143 132 91 103 125 90 115
265 17 14 283 343 275 310 340 254 257 255 242 241 269 276 287 291 317 317 330 177 150 157 137 120 101 102 104 112 117 125 128 136 141 153 169 166 167 148 138 122 38 118 149